Location: Climax
(33.2048°N, 96.4497°W)
Time: 14:27:21
(UTC+00:00)

NOAA 12 - Pass Details

Date: 08 December 2021
Orbit: 795 x 815 km, 98.5° (Epoch: 28 January)

Event Time Altitude Azimuth Distance (km) Brightness Sun altitude
Rises 23:43:49 0° 169° (S) 3,324 7.5 -5.6°
Reaches altitude 10° 23:46:09 10° 171° (S) 2,396 6.8 -6.1°
Maximum altitude 23:51:28 78° 257° (WSW) 836 4.4 -7.1°
Drops below altitude 10° 23:56:47 10° 344° (NNW) 2,402 6.5 -8.1°
Sets 23:59:08 0° 346° (NNW) 3,335 7.2 -8.6°
